Location: ??????
(42.0089°N, 44.3281°E)
Time: 17:55:15
(UTC+00:00)

USA 267 - Pass Details

Date: 05 June 2022
Orbit: 1101 x 1106 km, 123.0° (Epoch: 28 June)

Event Time Altitude Azimuth Distance (km) Brightness Sun altitude
Rises 00:32:55 0° 177° (S) 3,902 5.8 -9.0°
Reaches altitude 10° 00:36:12 10° 194° (SSW) 2,948 5.0 -8.6°
Maximum altitude 00:40:40 19° 238° (WSW) 2,331 4.4 -8.0°
Drops below altitude 10° 00:45:09 10° 282° (WNW) 2,959 5.2 -7.3°
Sets 00:48:29 0° 299° (WNW) 3,921 5.9 -6.8°
